QTR1183 OEJN-OTHH

Flight info

Callsign QTR1183
Flight time 1h 41m
Altitude 41000
Route EGREP T532 KODIS Y214 RAPMA DCT LADBO T142 LAEEB
Aircraft B77W/H-SDE1E2E3FGHIJ2J3J4J5M1RWXY/LB1D1

Departure

Time 2026-05-07 14:20
Airport King Abdulaziz International Airport (OEJN)

Arrival

Time 2026-05-07 16:01
Airport Hamad International Airport (OTHH)
Time Latitude Longitude Altitude Speed Heading
2026-05-07 13:26 21.67135 39.16737 45 ft 0 kts 181°
2026-05-07 14:07 21.67137 39.16737 45 ft 1 kts 181°
2026-05-07 14:07 21.67153 39.16738 45 ft 3 kts 181°
2026-05-07 14:08 21.67173 39.16739 45 ft 3 kts 182°
2026-05-07 14:08 21.67189 39.16739 40 ft 3 kts 185°
2026-05-07 14:08 21.67206 39.16742 41 ft 3 kts 206°
2026-05-07 14:08 21.67218 39.16750 40 ft 3 kts 237°
2026-05-07 14:09 21.67223 39.16762 41 ft 3 kts 268°
2026-05-07 14:09 21.67222 39.16783 43 ft 3 kts 276°
2026-05-07 14:09 21.67220 39.16800 45 ft 1 kts 272°
2026-05-07 14:09 21.67220 39.16801 45 ft 2 kts 272°
2026-05-07 14:12 21.67222 39.16760 41 ft 12 kts 273°
2026-05-07 14:13 21.67230 39.16656 44 ft 15 kts 276°
2026-05-07 14:13 21.67255 39.16549 42 ft 15 kts 300°
2026-05-07 14:13 21.67342 39.16493 42 ft 15 kts 340°
2026-05-07 14:13 21.67440 39.16456 42 ft 15 kts 341°
2026-05-07 14:14 21.67536 39.16418 42 ft 12 kts 338°
2026-05-07 14:14 21.67560 39.16359 40 ft 10 kts 258°
2026-05-07 14:14 21.67539 39.16282 40 ft 11 kts 251°
2026-05-07 14:14 21.67510 39.16198 39 ft 12 kts 249°
2026-05-07 14:15 21.67439 39.16166 39 ft 13 kts 167°
2026-05-07 14:15 21.67329 39.16208 39 ft 21 kts 159°
2026-05-07 14:15 21.67190 39.16265 40 ft 21 kts 159°
2026-05-07 14:15 21.67052 39.16322 41 ft 21 kts 159°
2026-05-07 14:16 21.66913 39.16378 41 ft 21 kts 160°
2026-05-07 14:16 21.66770 39.16433 41 ft 23 kts 160°
2026-05-07 14:16 21.66602 39.16499 42 ft 28 kts 159°
2026-05-07 14:16 21.66417 39.16573 42 ft 28 kts 159°
2026-05-07 14:17 21.66251 39.16640 42 ft 13 kts 159°
2026-05-07 14:17 21.66189 39.16632 41 ft 1 kts 230°
2026-05-07 14:19 21.66184 39.16624 41 ft 5 kts 239°
2026-05-07 14:19 21.66162 39.16561 40 ft 12 kts 252°
2026-05-07 14:19 21.66183 39.16462 39 ft 18 kts 334°
2026-05-07 14:20 21.66358 39.16393 41 ft 42 kts 340°
2026-05-07 14:20 21.66889 39.16184 41 ft 123 kts 340°
2026-05-07 14:20 21.67913 39.15786 247 ft 176 kts 339°
2026-05-07 14:20 21.69095 39.15309 1054 ft 184 kts 339°
2026-05-07 14:21 21.70276 39.14814 2045 ft 180 kts 339°
2026-05-07 14:21 21.71526 39.14322 2451 ft 206 kts 340°
2026-05-07 14:21 21.72953 39.13766 2882 ft 227 kts 340°
2026-05-07 14:21 21.74512 39.13163 3339 ft 251 kts 339°
2026-05-07 14:22 21.76229 39.12486 3888 ft 271 kts 339°
2026-05-07 14:22 21.78052 39.11768 4313 ft 288 kts 339°
2026-05-07 14:22 21.79952 39.11017 4484 ft 293 kts 339°
2026-05-07 14:22 21.81845 39.10265 4644 ft 283 kts 339°
2026-05-07 14:23 21.83650 39.09537 5012 ft 273 kts 338°
2026-05-07 14:23 21.85436 39.08817 5694 ft 274 kts 338°
2026-05-07 14:23 21.87255 39.08095 6060 ft 284 kts 339°
2026-05-07 14:23 21.89109 39.07372 6083 ft 282 kts 339°
2026-05-07 14:24 21.90934 39.06631 6134 ft 281 kts 336°
2026-05-07 14:24 21.92729 39.05784 6131 ft 282 kts 335°
2026-05-07 14:24 21.94521 39.04908 6102 ft 284 kts 334°
2026-05-07 14:24 21.96322 39.04029 6048 ft 285 kts 334°
2026-05-07 14:25 21.98131 39.03153 6107 ft 285 kts 335°
2026-05-07 14:25 21.99951 39.02281 6770 ft 286 kts 334°
2026-05-07 14:25 22.01759 39.01415 7809 ft 284 kts 333°
2026-05-07 14:25 22.03573 39.00546 8693 ft 288 kts 333°
2026-05-07 14:26 22.05403 38.99670 9530 ft 294 kts 333°
2026-05-07 14:26 22.07286 38.98770 10347 ft 300 kts 332°
2026-05-07 14:26 22.09254 38.97825 10777 ft 323 kts 333°
2026-05-07 14:26 22.11404 38.96790 10993 ft 354 kts 333°
2026-05-07 14:27 22.13778 38.95781 11134 ft 381 kts 344°
2026-05-07 14:27 22.16491 38.95698 11750 ft 402 kts
2026-05-07 14:27 22.19122 38.96809 12636 ft 414 kts 31°
2026-05-07 14:27 22.21360 38.98788 13020 ft 420 kts 43°
2026-05-07 14:28 22.23474 39.00986 12999 ft 422 kts 44°
2026-05-07 14:28 22.25600 39.03162 13007 ft 421 kts 42°
2026-05-07 14:28 22.27757 39.05291 13007 ft 420 kts 42°
2026-05-07 14:28 22.29693 39.07621 12997 ft 420 kts 58°
2026-05-07 14:29 22.30849 39.10500 13005 ft 419 kts 78°
2026-05-07 14:29 22.31473 39.13567 13022 ft 420 kts 79°
2026-05-07 14:29 22.32101 39.16660 13020 ft 423 kts 79°
2026-05-07 14:29 22.32745 39.19741 13013 ft 419 kts 79°
2026-05-07 14:30 22.33397 39.22797 13009 ft 415 kts 78°
2026-05-07 14:30 22.34050 39.25825 13011 ft 415 kts 78°
2026-05-07 14:30 22.34710 39.28868 13023 ft 416 kts 78°
2026-05-07 14:30 22.35369 39.31907 13025 ft 416 kts 78°
2026-05-07 14:31 22.36032 39.34959 13027 ft 417 kts 78°
2026-05-07 14:31 22.36694 39.38010 13028 ft 417 kts 78°
2026-05-07 14:31 22.37354 39.41052 13036 ft 417 kts 78°
2026-05-07 14:31 22.38014 39.44104 13042 ft 417 kts 78°
2026-05-07 14:32 22.38672 39.47149 13055 ft 417 kts 78°
2026-05-07 14:32 22.39331 39.50198 13054 ft 417 kts 78°
2026-05-07 14:32 22.39993 39.53267 13654 ft 423 kts 78°
2026-05-07 14:32 22.40632 39.56229 14568 ft 425 kts 78°
2026-05-07 14:33 22.41271 39.59184 15475 ft 429 kts 78°
2026-05-07 14:33 22.41982 39.62482 16377 ft 436 kts 78°
2026-05-07 14:33 22.42439 39.64607 16932 ft 441 kts 78°
2026-05-07 14:33 22.43141 39.67864 17812 ft 448 kts 79°
2026-05-07 14:34 22.44083 39.72243 18851 ft 455 kts 78°
2026-05-07 14:34 22.44804 39.75595 19644 ft 460 kts 78°
2026-05-07 14:34 22.45531 39.78975 20434 ft 465 kts 78°
2026-05-07 14:34 22.46084 39.81261 20854 ft 466 kts 72°
2026-05-07 14:35 22.48240 39.85313 21637 ft 477 kts 47°
2026-05-07 14:35 22.49835 39.86933 22125 ft 473 kts 39°
2026-05-07 14:35 22.52407 39.89277 22698 ft 482 kts 39°
2026-05-07 14:35 22.54973 39.91645 23336 ft 488 kts 39°
2026-05-07 14:36 22.57552 39.94057 23968 ft 492 kts 39°
2026-05-07 14:36 22.60107 39.96472 24523 ft 497 kts 40°
2026-05-07 14:36 22.62710 39.98950 25061 ft 502 kts 40°
2026-05-07 14:36 22.65345 40.01469 25587 ft 508 kts 40°
2026-05-07 14:37 22.68005 40.04017 26097 ft 513 kts 40°
2026-05-07 14:37 22.73403 40.09191 27146 ft 523 kts 40°
2026-05-07 14:37 22.76138 40.11813 27638 ft 528 kts 40°
2026-05-07 14:38 22.78898 40.14460 28106 ft 533 kts 40°
2026-05-07 14:38 22.81689 40.17137 28553 ft 538 kts 40°
2026-05-07 14:38 22.84503 40.19838 29010 ft 542 kts 40°
2026-05-07 14:38 22.87335 40.22558 29449 ft 546 kts 40°
2026-05-07 14:39 22.90183 40.25295 29984 ft 547 kts 40°
2026-05-07 14:39 22.93032 40.28035 30510 ft 547 kts 40°
2026-05-07 14:39 22.95884 40.30779 30996 ft 548 kts 40°
2026-05-07 14:39 22.98734 40.33523 31453 ft 549 kts 40°
2026-05-07 14:40 23.01594 40.36278 31906 ft 551 kts 40°
2026-05-07 14:40 23.04468 40.39048 32338 ft 552 kts 40°
2026-05-07 14:40 23.07345 40.41822 32778 ft 554 kts 40°
2026-05-07 14:40 23.10229 40.44604 33221 ft 555 kts 40°
2026-05-07 14:41 23.13115 40.47392 33665 ft 556 kts 40°
2026-05-07 14:41 23.16008 40.50187 34087 ft 557 kts 40°
2026-05-07 14:41 23.18907 40.52991 34468 ft 558 kts 40°
2026-05-07 14:41 23.21809 40.55797 34847 ft 559 kts 41°
2026-05-07 14:42 23.24593 40.58743 35209 ft 560 kts 49°
2026-05-07 14:42 23.27006 40.62065 35559 ft 559 kts 57°
2026-05-07 14:42 23.29062 40.65638 35952 ft 557 kts 64°
2026-05-07 14:42 23.30723 40.69426 36312 ft 553 kts 73°
2026-05-07 14:43 23.32079 40.73332 36714 ft 551 kts 74°
2026-05-07 14:43 23.33382 40.77243 37102 ft 550 kts 75°
2026-05-07 14:43 23.34679 40.81165 37483 ft 550 kts 75°
2026-05-07 14:43 23.35989 40.85081 37859 ft 550 kts 75°
2026-05-07 14:44 23.37311 40.88975 38252 ft 550 kts 75°
2026-05-07 14:44 23.38652 40.92875 38628 ft 549 kts 75°
2026-05-07 14:44 23.39999 40.96765 38918 ft 549 kts 74°
2026-05-07 14:44 23.41345 41.00644 39223 ft 548 kts 74°
2026-05-07 14:45 23.42691 41.04522 39524 ft 547 kts 74°
2026-05-07 14:45 23.44033 41.08399 39802 ft 546 kts 74°
2026-05-07 14:45 23.45368 41.12263 40153 ft 543 kts 74°
2026-05-07 14:45 23.46693 41.16101 40597 ft 539 kts 74°
2026-05-07 14:46 23.48006 41.19915 40886 ft 539 kts 74°
2026-05-07 14:46 23.49323 41.23750 40919 ft 543 kts 74°
2026-05-07 14:46 23.51958 41.31435 40964 ft 547 kts 73°
2026-05-07 14:47 23.54619 41.39196 40967 ft 546 kts 73°
2026-05-07 14:47 23.57269 41.46936 40967 ft 545 kts 74°
2026-05-07 14:48 23.59911 41.54671 40970 ft 544 kts 74°
2026-05-07 14:48 23.62541 41.62387 40964 ft 543 kts 74°
2026-05-07 14:49 23.65163 41.70094 40972 ft 542 kts 74°
2026-05-07 14:49 23.67768 41.77800 40968 ft 541 kts 75°
2026-05-07 14:50 23.70222 41.85557 40974 ft 540 kts 76°
2026-05-07 14:50 23.72640 41.93325 40974 ft 541 kts 75°
2026-05-07 14:51 23.75104 42.01087 40970 ft 542 kts 74°
2026-05-07 14:51 23.77730 42.08814 40981 ft 543 kts 73°
2026-05-07 14:52 23.80410 42.16536 40972 ft 544 kts 73°
2026-05-07 14:52 23.83065 42.24273 40975 ft 544 kts 73°
2026-05-07 14:53 23.85701 42.32031 40975 ft 544 kts 73°
2026-05-07 14:53 23.88327 42.39786 40973 ft 544 kts 73°
2026-05-07 14:54 23.90951 42.47540 40974 ft 544 kts 73°
2026-05-07 14:54 23.93574 42.55303 40975 ft 544 kts 73°
2026-05-07 14:55 23.96192 42.63064 40974 ft 544 kts 73°
2026-05-07 14:55 24.03592 42.92307 40959 ft 519 kts 103°
2026-05-07 14:56 24.01945 42.99966 40995 ft 503 kts 115°
2026-05-07 14:56 23.98032 43.13683 40994 ft 504 kts 115°
2026-05-07 14:56 23.94065 43.28240 40985 ft 505 kts 114°
2026-05-07 14:57 23.92065 43.35593 40977 ft 505 kts 114°
2026-05-07 14:57 23.90055 43.42948 40966 ft 505 kts 114°
2026-05-07 14:58 23.88043 43.50290 40964 ft 504 kts 114°
2026-05-07 14:58 23.86038 43.57599 40598 ft 503 kts 114°
2026-05-07 14:59 23.85031 43.61260 40214 ft 502 kts 115°
2026-05-07 14:59 23.84032 43.64896 39853 ft 498 kts 115°
2026-05-07 14:59 23.83043 43.68492 39491 ft 494 kts 115°
2026-05-07 14:59 23.82057 43.72072 39129 ft 489 kts 115°
2026-05-07 15:00 23.81075 43.75626 38940 ft 489 kts 115°
2026-05-07 15:00 23.80090 43.79182 38954 ft 489 kts 115°
2026-05-07 15:00 23.78132 43.86303 38921 ft 491 kts 113°
2026-05-07 15:01 23.76932 43.93731 38935 ft 509 kts 101°
2026-05-07 15:01 23.76414 44.01543 38923 ft 522 kts 101°
2026-05-07 15:02 23.75859 44.09513 38920 ft 529 kts 101°
2026-05-07 15:02 23.75267 44.17530 38909 ft 531 kts 101°
2026-05-07 15:03 23.74658 44.25571 38908 ft 532 kts 101°
2026-05-07 15:03 23.74044 44.33613 38899 ft 531 kts 101°
2026-05-07 15:04 23.73431 44.41615 38899 ft 529 kts 101°
2026-05-07 15:04 23.72814 44.49609 38892 ft 527 kts 101°
2026-05-07 15:05 23.72200 44.57509 38896 ft 525 kts 101°
2026-05-07 15:05 23.71579 44.65444 38902 ft 524 kts 101°
2026-05-07 15:06 23.70954 44.73373 38901 ft 524 kts 101°
2026-05-07 15:06 23.70326 44.81294 38901 ft 525 kts 101°
2026-05-07 15:07 23.69693 44.89236 38903 ft 526 kts 101°
2026-05-07 15:07 23.69051 44.97181 38907 ft 527 kts 100°
2026-05-07 15:08 23.68402 45.05172 38909 ft 530 kts 100°
2026-05-07 15:08 23.67743 45.13239 38901 ft 537 kts 100°
2026-05-07 15:09 23.67077 45.21370 38912 ft 539 kts 100°
2026-05-07 15:09 23.66405 45.29529 38893 ft 541 kts 100°
2026-05-07 15:10 23.65729 45.37696 38896 ft 540 kts 100°
2026-05-07 15:10 23.65050 45.45858 38912 ft 539 kts 100°
2026-05-07 15:11 23.64369 45.53985 38887 ft 538 kts 100°
2026-05-07 15:11 23.63685 45.62101 38893 ft 536 kts 100°
2026-05-07 15:12 23.62998 45.70198 38887 ft 535 kts 100°
2026-05-07 15:12 23.62310 45.78271 38880 ft 534 kts 100°
2026-05-07 15:13 23.61620 45.86324 38876 ft 533 kts 100°
2026-05-07 15:13 23.60926 45.94373 38887 ft 533 kts 100°
2026-05-07 15:14 23.60229 46.02416 38890 ft 533 kts 100°
2026-05-07 15:14 23.59527 46.10450 38890 ft 533 kts 100°
2026-05-07 15:15 23.58822 46.18488 38898 ft 533 kts 100°
2026-05-07 15:15 23.58111 46.26531 38890 ft 533 kts 100°
2026-05-07 15:16 23.57403 46.34516 38889 ft 533 kts 100°
2026-05-07 15:16 23.56685 46.42548 38901 ft 532 kts 100°
2026-05-07 15:17 23.55966 46.50564 38899 ft 531 kts 100°
2026-05-07 15:17 23.55238 46.58568 38891 ft 530 kts 100°
2026-05-07 15:18 23.54501 46.66546 38889 ft 529 kts 100°
2026-05-07 15:18 23.53761 46.74522 38885 ft 528 kts 100°
2026-05-07 15:19 23.53019 46.82476 38872 ft 528 kts 100°
2026-05-07 15:19 23.52274 46.90427 38867 ft 527 kts 100°
2026-05-07 15:20 23.51527 46.98367 38868 ft 527 kts 100°
2026-05-07 15:20 23.50776 47.06302 38860 ft 526 kts 100°
2026-05-07 15:21 23.50022 47.14221 38862 ft 526 kts 100°
2026-05-07 15:21 23.49263 47.22148 38856 ft 526 kts 100°
2026-05-07 15:22 23.48502 47.30062 38862 ft 526 kts 100°
2026-05-07 15:22 23.47742 47.37923 38855 ft 525 kts 100°
2026-05-07 15:23 23.46972 47.45840 38859 ft 525 kts 100°
2026-05-07 15:23 23.46201 47.53739 38852 ft 525 kts 100°
2026-05-07 15:24 23.45430 47.61648 38844 ft 525 kts 99°
2026-05-07 15:24 23.44784 47.68275 38846 ft 525 kts 99°
2026-05-07 15:25 23.44009 47.76172 38842 ft 525 kts 99°
2026-05-07 15:25 23.43230 47.84069 38837 ft 524 kts 99°
2026-05-07 15:26 23.42448 47.91959 38835 ft 524 kts 99°
2026-05-07 15:26 23.41661 47.99844 38829 ft 524 kts 99°
2026-05-07 15:27 23.40871 48.07731 38828 ft 524 kts 99°
2026-05-07 15:27 23.40078 48.15609 38819 ft 523 kts 99°
2026-05-07 15:28 23.39281 48.23488 38817 ft 523 kts 99°
2026-05-07 15:28 23.38774 48.31383 38810 ft 527 kts 90°
2026-05-07 15:29 23.39883 48.39290 38811 ft 531 kts 76°
2026-05-07 15:29 23.42354 48.46861 38817 ft 532 kts 70°
2026-05-07 15:30 23.45022 48.54383 38809 ft 532 kts 70°
2026-05-07 15:30 23.47643 48.61918 38810 ft 532 kts 70°
2026-05-07 15:31 23.50211 48.69479 38811 ft 532 kts 71°
2026-05-07 15:31 23.52743 48.77008 38809 ft 532 kts 71°
2026-05-07 15:32 23.55288 48.84582 38807 ft 533 kts 71°
2026-05-07 15:32 23.57837 48.92167 38808 ft 533 kts 71°
2026-05-07 15:33 23.60382 48.99746 38807 ft 533 kts 71°
2026-05-07 15:33 23.62924 49.07336 38806 ft 533 kts 71°
2026-05-07 15:34 23.65463 49.14928 38804 ft 533 kts 71°
2026-05-07 15:34 23.68000 49.22528 38807 ft 533 kts 71°
2026-05-07 15:35 23.70530 49.30122 38810 ft 533 kts 71°
2026-05-07 15:35 23.73057 49.37722 38808 ft 533 kts 71°
2026-05-07 15:36 23.75578 49.45319 38806 ft 532 kts 71°
2026-05-07 15:36 23.78097 49.52923 38806 ft 532 kts 71°
2026-05-07 15:37 23.80610 49.60521 38809 ft 532 kts 71°
2026-05-07 15:37 23.83117 49.68119 38808 ft 532 kts 71°
2026-05-07 15:38 23.85623 49.75726 38809 ft 532 kts 71°
2026-05-07 15:38 23.88122 49.83325 38808 ft 532 kts 71°
2026-05-07 15:39 23.90621 49.90938 38811 ft 532 kts 71°
2026-05-07 15:39 23.93110 49.98539 38810 ft 532 kts 71°
2026-05-07 15:40 23.95600 50.06153 38810 ft 531 kts 71°
2026-05-07 15:40 23.98083 50.13762 38806 ft 531 kts 71°
2026-05-07 15:41 24.00561 50.21371 38807 ft 531 kts 71°
2026-05-07 15:41 24.03039 50.28993 38810 ft 531 kts 71°
2026-05-07 15:42 24.05511 50.36611 38807 ft 531 kts 71°
2026-05-07 15:42 24.07979 50.44231 38815 ft 531 kts 71°
2026-05-07 15:43 24.10444 50.51858 38809 ft 531 kts 71°
2026-05-07 15:43 24.12904 50.59483 38757 ft 532 kts 71°
2026-05-07 15:44 24.14130 50.63290 37973 ft 542 kts 71°
2026-05-07 15:44 24.15396 50.67221 37250 ft 540 kts 71°
2026-05-07 15:44 24.16625 50.71046 36504 ft 538 kts 71°
2026-05-07 15:44 24.17865 50.74905 35775 ft 537 kts 71°
2026-05-07 15:45 24.19102 50.78758 34925 ft 537 kts 71°
2026-05-07 15:45 24.20343 50.82628 34152 ft 539 kts 71°
2026-05-07 15:45 24.21590 50.86524 33649 ft 544 kts 71°
2026-05-07 15:45 24.22836 50.90421 33431 ft 541 kts 71°
2026-05-07 15:46 24.25308 50.98156 33055 ft 535 kts 71°
2026-05-07 15:46 24.26532 51.01995 32771 ft 534 kts 71°
2026-05-07 15:46 24.27759 51.05844 32394 ft 535 kts 71°
2026-05-07 15:47 24.28988 51.09707 31417 ft 541 kts 71°
2026-05-07 15:47 24.30230 51.13611 30375 ft 543 kts 71°
2026-05-07 15:47 24.31489 51.17501 29537 ft 539 kts 69°
2026-05-07 15:47 24.33075 51.21195 28750 ft 532 kts 60°
2026-05-07 15:48 24.35050 51.24592 28031 ft 524 kts 54°
2026-05-07 15:48 24.37287 51.27704 27339 ft 516 kts 47°
2026-05-07 15:48 24.39817 51.30452 26666 ft 508 kts 41°
2026-05-07 15:48 24.42421 51.33039 26016 ft 501 kts 41°
2026-05-07 15:49 24.44981 51.35597 25364 ft 495 kts 42°
2026-05-07 15:49 24.47482 51.38158 24718 ft 489 kts 43°
2026-05-07 15:49 24.49949 51.40705 24072 ft 483 kts 42°
2026-05-07 15:49 24.52535 51.43024 23437 ft 478 kts 36°
2026-05-07 15:50 24.55240 51.45023 22684 ft 457 kts 31°
2026-05-07 15:50 24.57995 51.46653 21681 ft 444 kts 26°
2026-05-07 15:50 24.60770 51.48100 20645 ft 439 kts 25°
2026-05-07 15:50 24.63528 51.49534 19718 ft 440 kts 26°
2026-05-07 15:51 24.66242 51.50975 18860 ft 428 kts 27°
2026-05-07 15:51 24.68898 51.52403 17885 ft 421 kts 27°
2026-05-07 15:51 24.71541 51.53746 16784 ft 416 kts 25°
2026-05-07 15:51 24.74165 51.55001 15826 ft 407 kts 25°
2026-05-07 15:52 24.76598 51.56494 14925 ft 396 kts 36°
2026-05-07 15:52 24.78665 51.58428 14173 ft 384 kts 46°
2026-05-07 15:52 24.80308 51.60725 13497 ft 382 kts 57°
2026-05-07 15:52 24.81564 51.63304 12759 ft 384 kts 64°
2026-05-07 15:53 24.82728 51.65954 12025 ft 384 kts 64°
2026-05-07 15:53 24.83891 51.68606 11299 ft 385 kts 64°
2026-05-07 15:53 24.85056 51.71251 10608 ft 379 kts 65°
2026-05-07 15:53 24.86179 51.73758 9889 ft 352 kts 63°
2026-05-07 15:54 24.87551 51.75881 9129 ft 333 kts 46°
2026-05-07 15:54 24.89424 51.77252 8465 ft 318 kts 22°
2026-05-07 15:54 24.91429 51.77637 7992 ft 303 kts 359°
2026-05-07 15:54 24.93449 51.77203 7508 ft 291 kts 341°
2026-05-07 15:55 24.95200 51.76183 7018 ft 280 kts 329°
2026-05-07 15:55 24.96778 51.75003 6682 ft 268 kts 327°
2026-05-07 15:55 24.98282 51.73862 6334 ft 258 kts 328°
2026-05-07 15:55 24.99726 51.72786 5969 ft 250 kts 328°
2026-05-07 15:56 25.01158 51.71725 5491 ft 248 kts 328°
2026-05-07 15:56 25.02613 51.70728 5050 ft 244 kts 335°
2026-05-07 15:56 25.04123 51.69961 4913 ft 237 kts 339°
2026-05-07 15:56 25.05674 51.69276 4703 ft 243 kts 340°
2026-05-07 15:57 25.07290 51.68593 4207 ft 252 kts 340°
2026-05-07 15:57 25.08884 51.67896 3761 ft 243 kts 339°
2026-05-07 15:57 25.10425 51.67218 3332 ft 234 kts 339°
2026-05-07 15:57 25.11929 51.66557 2844 ft 229 kts 338°
2026-05-07 15:58 25.13354 51.65919 2637 ft 215 kts 338°
2026-05-07 15:58 25.14727 51.65324 2312 ft 210 kts 338°
2026-05-07 15:58 25.16066 51.64738 1984 ft 204 kts 338°
2026-05-07 15:58 25.17355 51.64160 1696 ft 194 kts 337°
2026-05-07 15:59 25.18540 51.63640 1491 ft 173 kts 338°
2026-05-07 15:59 25.19597 51.63168 1252 ft 156 kts 337°
2026-05-07 15:59 25.20562 51.62742 994 ft 142 kts 338°
2026-05-07 15:59 25.21434 51.62360 774 ft 128 kts 339°
2026-05-07 16:00 25.22283 51.61975 644 ft 135 kts 339°
2026-05-07 16:00 25.23156 51.61583 523 ft 135 kts 340°
2026-05-07 16:00 25.24032 51.61203 372 ft 138 kts 341°
2026-05-07 16:00 25.24942 51.60814 212 ft 141 kts 340°
2026-05-07 16:01 25.25840 51.60414 30 ft 136 kts 341°
2026-05-07 16:01 25.26634 51.60069 20 ft 103 kts 338°
2026-05-07 16:01 25.27158 51.59839 24 ft 57 kts 346°
2026-05-07 16:01 25.27412 51.59850 26 ft 15 kts 28°
2026-05-07 16:02 25.27401 51.59931 30 ft 13 kts 150°
2026-05-07 16:02 25.27314 51.59971 27 ft 13 kts 158°
2026-05-07 16:02 25.27227 51.60009 27 ft 13 kts 158°
2026-05-07 16:02 25.27127 51.60054 29 ft 18 kts 158°
2026-05-07 16:03 25.26989 51.60115 27 ft 24 kts 158°
2026-05-07 16:03 25.26818 51.60191 29 ft 28 kts 159°
2026-05-07 16:03 25.26638 51.60270 30 ft 28 kts 158°
2026-05-07 16:03 25.26477 51.60345 30 ft 9 kts 141°
2026-05-07 16:04 25.26494 51.60408 28 ft 10 kts 49°
2026-05-07 16:04 25.26534 51.60469 26 ft 11 kts 62°
2026-05-07 16:04 25.26578 51.60582 27 ft 20 kts 67°
2026-05-07 16:04 25.26557 51.60730 27 ft 20 kts 113°
2026-05-07 16:05 25.26494 51.60868 27 ft 20 kts 137°
2026-05-07 16:05 25.26434 51.60952 27 ft 14 kts 86°
2026-05-07 16:05 25.26383 51.61032 27 ft 14 kts 154°
2026-05-07 16:05 25.26314 51.61080 27 ft 11 kts 114°
2026-05-07 16:06 25.26329 51.61142 27 ft 5 kts 67°
2026-05-07 16:06 25.26335 51.61160 27 ft 1 kts 67°
2026-05-07 16:06 25.26337 51.61165 27 ft 0 kts 67°